Probability
0 0 0 0 0 0 0 0 0 0 0 0 0 0 0 0 0 0 0 0 0 0 0 0 0 0 0 0 0 0 0 0 0 0 0 0 0 0
0 0 0 0 0 0 0 0 0 0 0 0 0 0 0 0 0 0 0 0 0 0 0 0 0 0 0 0 0 0 0 0 0 0 0 0 0 0
0 0 0 0 0 0 0 0 0 0 0 0 0 0 0 0 0 0 0 0 0 0 0 0 1 0 0 0 0 0 0 0 0 0 0 0 0 0
0 0 0 0 0 0 0 0 0 0 0 0 0 0 0 0 0 0 0 0 0 0 0 0 0 0 0 0 0 0 0 0 0 0 0 0 0 0
0 0 0 0 0 0 0 0 0 0 0 0 0 0 0 0 0 0 0 0 0 0 0 0 0 0 0 0 0 0 0 0 0 0 0 0 0 0
0 0 0 0 0 0 0 0 0 0 0 0 0 0 0 0 0 0 0 0 0 0 0 0 0 0 0 0 0 0 0 0 0 0 0 0 0 0
0 0 0 0 0 0 0 0 0 0 0 0 0 0 0 0 0 0 0 0 0 0 0 0 0 0 0 0 0 0 0 0 0 0 0 0 0 0
0 0 0 0 0 0 0 0 0 0 0 0 0 0 0 0 0 0 0 0 0 0 0 0 0 0 0 0 0 0 0 0 0 0 0 0 0 0
0 0 0 0 0 0 0 0 0 0 0 0 0 0 0 0 0 0 0 0 0 0 0 0 0 0 0 0 0 0 0 0 0 0 0 0 1 1
0 0 0 0 0 0 0 0 0 0 0 0 0 0 0 0 0 0 0 0 0 0 0 0 0 0 0 0 0 0 0 0 0 0 0 1 2 2
0 0 0 0 0 0 0 0 0 0 0 0 0 0 0 0 0 0 0 0 0 0 0 0 0 0 0 0 0 0 0 0 0 0 0 1 2 2
0 0 0 0 0 0 0 0 0 0 0 0 0 0 0 0 0 0 0 0 0 0 0 0 0 0 0 0 0 0 0 0 0 0 0 0 1 1
0 0 0 0 0 0 0 0 0 0 0 0 0 0 0 0 0 0 0 0 0 0 0 0 0 0 0 0 0 0 0 0 0 0 0 0 0 0
0 0 0 0 0 0 0 0 0 0 0 0 0 0 0 0 0 0 0 0 0 0 0 0 0 0 0 0 0 0 0 0 0 0 0 0 0 0
0 0 0 0 0 0 0 0 0 0 0 0 0 0 0 0 0 0 0 0 0 0 0 0 0 0 0 0 0 0 0 0 0 0 0 0 0 0
0 0 0 0 0 0 0 0 0 0 0 0 0 0 0 0 0 0 0 0 0 0 0 0 0 0 0 0 0 0 0 0 0 0 0 0 0 0
0 0 0 0 0 0 0 0 0 0 0 0 0 0 0 0 0 0 0 0 0 0 0 0 0 0 0 0 0 0 0 0 0 0 0 0 0 0
0 0 0 0 0 0 0 0 0 0 0 0 0 0 0 0 0 0 0 0 0 0 0 0 0 0 0 0 0 0 0 0 0 0 0 0 0 0
0 0 0 0 0 0 0 0 0 0 0 0 0 0 0 0 0 0 0 0 0 0 0 0 0 0 0 0 0 0 0 0 0 0 0 0 0 0
0 0 0 0 0 0 0 0 0 0 0 0 0 0 0 0 0 0 0 0 0 0 0 0 0 0 0 0 0 0 0 0 0 0 0 0 0 0
0 0 0 0 0 0 0 0 0 0 0 0 0 0 0 0 0 0 0 0 0 0 0 0 0 0 0 0 0 0 0 0 0 0 0 0 0 0
0 0 0 0 0 0 0 0 0 0 0 0 0 0 0 0 0 0 0 0 0 0 0 0 0 0 0 0 0 0 0 0 0 0 0 0 0 0
0 0 0 0 0 0 0 0 0 0 0 0 0 0 0 0 0 0 0 0 0 0 0 0 0 0 0 0 0 0 0 0 0 0 0 0 0 0
Wind_Speed
3 3 3 2 2 2 2 2 3 5 6 3 2 2 2 2 5 4 3 8 11 11 12 12 12 13 14 15 14 14 14 15 15 15 16 16 16 17
2 3 3 2 2 2 2 3 3 5 6 4 3 3 3 4 6 4 3 9 10 12 12 13 13 14 14 15 15 14 15 15 15 15 16 16 16 16
3 3 4 3 3 3 2 3 4 4 7 6 4 3 4 4 4 3 4 4 5 10 12 13 13 14 14 14 14 15 15 15 15 15 16 16 16 17
3 3 4 3 4 3 3 4 4 4 5 8 5 4 5 4 4 4 5 5 5 9 12 13 13 13 13 13 14 14 14 14 14 14 15 16 16 16
3 4 4 4 4 4 4 4 4 4 4 6 7 4 4 4 4 5 5 5 6 7 10 11 12 13 14 14 14 13 13 13 13 14 14 15 16 16
4 4 4 4 5 5 4 5 4 4 4 5 6 5 4 4 3 4 5 4 5 5 7 9 11 13 13 14 13 12 12 13 13 14 14 14 15 15
4 4 4 5 6 6 5 5 5 4 4 5 6 5 5 4 4 4 6 5 5 4 4 5 5 5 6 10 11 12 13 13 13 14 14 14 14 14
4 4 4 4 5 8 9 8 7 6 6 6 6 7 7 6 5 4 5 6 6 3 4 5 4 5 5 4 10 14 14 14 14 14 14 14 14 14
4 4 4 4 4 5 7 9 8 9 10 8 8 8 7 6 5 6 5 6 7 5 4 6 3 5 5 6 13 14 14 14 14 15 15 15 15 15
4 5 5 5 5 5 5 5 6 6 8 7 7 7 7 5 5 6 6 6 6 4 4 6 4 5 5 4 10 12 13 13 14 15 15 15 16 15
5 5 5 5 8 8 5 6 6 6 8 9 9 9 10 10 7 4 4 5 7 5 2 4 4 5 5 4 6 11 12 13 14 15 15 15 15 15
4 4 5 6 9 9 5 5 7 7 5 5 6 8 7 7 8 5 5 5 5 5 2 2 3 3 5 4 3 4 6 11 14 15 16 16 15 9
4 4 4 9 10 10 8 6 8 7 4 4 4 4 4 4 4 4 4 4 5 5 3 2 3 3 4 5 4 4 4 5 6 8 12 15 15 11
5 4 5 9 10 11 8 8 10 7 3 3 4 4 4 4 3 3 3 4 4 6 5 4 4 4 4 6 6 4 4 5 5 6 6 11 12 14
5 8 9 10 9 7 8 9 6 4 4 4 5 5 4 4 3 3 3 3 4 4 4 4 5 5 5 6 6 6 6 5 5 5 5 6 6 7
5 6 9 9 8 7 5 5 4 4 4 5 5 4 3 3 3 3 3 3 4 4 4 4 4 5 5 6 6 7 6 5 5 6 6 6 6 6
4 3 3 3 4 4 4 4 4 4 4 4 4 4 4 4 3 3 3 3 4 5 5 3 3 4 6 6 7 7 6 6 6 6 6 7 6 6
4 4 4 5 5 5 5 5 4 5 5 4 4 4 4 4 4 3 3 3 4 5 5 4 3 4 3 5 8 7 6 6 6 5 5 7 8 7
4 4 5 5 5 5 5 5 6 5 4 4 5 5 4 4 4 4 4 4 4 5 4 4 3 3 5 6 5 5 5 6 5 5 5 6 8 9
4 5 5 6 5 5 5 6 5 5 4 5 5 5 5 5 5 5 5 5 5 5 4 4 4 4 5 6 5 6 8 6 5 6 6 6 7 11
4 5 5 5 5 5 5 5 5 5 5 5 5 5 5 5 5 5 5 6 5 4 5 5 5 5 3 2 4 6 5 8 9 7 7 6 7 7
5 5 5 5 5 5 5 4 4 5 5 5 5 5 4 5 5 6 5 5 5 5 5 5 4 3 3 4 6 7 7 7 8 12 12 10 6 6
5 5 5 5 5 4 4 5 5 5 5 5 5 4 4 4 4 5 5 5 4 4 4 4 3 3 4 4 5 6 7 8 6 6 7 10 13 15
Wind_Direction
245 243 245 254 257 256 252 244 254 279 283 273 276 287 292 286 293 294 275 286 290 292 296 297 296 298 301 301 298 299 302 303 302 301 300 300 295 294
258 248 249 257 266 264 259 258 249 254 272 278 280 294 300 296 295 295 288 292 288 290 292 295 295 294 296 297 297 297 299 300 301 303 303 303 303 300
267 261 257 251 253 257 260 259 256 252 265 279 285 295 297 293 298 294 292 284 289 292 294 296 296 296 295 296 297 298 298 299 300 300 300 300 301 301
267 266 265 264 260 256 256 256 257 257 262 278 287 290 289 290 292 290 293 291 286 294 295 296 298 300 302 302 301 300 300 302 303 304 303 303 303 303
251 252 260 259 263 265 263 261 264 270 267 272 283 289 289 293 297 294 288 283 289 293 293 294 298 300 300 299 299 301 301 302 304 304 304 305 305 305
259 256 257 253 254 259 264 265 268 272 272 271 279 287 288 290 287 288 293 289 293 297 293 296 298 300 300 300 301 302 303 303 304 305 306 307 307 306
269 264 263 262 265 266 268 272 271 267 269 271 276 284 284 292 285 287 285 294 290 284 291 294 296 293 294 295 298 299 300 302 304 306 306 307 308 307
271 273 273 267 270 275 277 277 273 267 268 267 270 273 278 281 284 282 286 295 292 293 293 291 287 287 288 284 294 297 298 302 304 305 306 308 309 307
271 277 281 280 273 274 278 280 279 276 270 267 269 271 279 285 290 288 286 286 284 297 299 286 283 286 292 295 298 299 303 306 307 308 308 307 308 308
273 270 273 280 279 281 281 281 279 278 275 270 266 273 278 283 273 274 279 285 287 291 293 285 292 287 294 292 297 298 304 308 311 311 310 308 308 308
273 270 268 270 277 284 282 276 280 281 282 281 282 285 287 287 286 284 280 284 286 284 274 274 292 301 293 286 290 297 304 308 310 312 312 310 312 312
281 275 268 271 280 281 274 270 272 276 284 290 286 287 286 286 287 275 268 269 280 283 272 275 291 314 301 286 295 304 303 304 306 308 311 312 311 310
278 277 274 281 284 283 279 268 272 282 283 282 287 290 292 288 283 278 272 266 264 265 285 301 290 285 272 291 296 292 293 299 302 300 302 304 306 306
273 278 281 287 288 286 281 278 283 285 276 273 276 279 282 283 284 282 276 272 267 268 274 275 267 272 276 281 284 289 293 299 297 294 295 299 301 302
275 282 290 290 290 284 284 288 285 271 264 263 264 266 268 274 280 283 281 277 277 274 271 268 264 266 262 267 276 287 296 294 284 289 293 294 294 297
280 282 283 284 283 285 287 282 274 268 258 258 265 270 276 275 275 277 280 284 283 280 271 260 258 258 262 265 266 275 279 279 288 290 291 289 287 285
296 285 279 282 277 278 277 274 270 266 261 259 262 268 271 269 271 274 269 273 266 277 288 286 271 261 259 261 265 265 272 279 280 288 293 290 283 279
290 273 271 270 270 273 272 271 264 260 258 258 258 257 260 263 268 270 267 260 264 270 276 284 292 293 288 267 248 259 268 276 288 293 292 290 289 288
271 268 268 269 271 272 272 270 268 264 258 253 254 256 258 260 261 263 260 262 265 268 273 275 273 267 275 285 281 262 271 285 292 290 282 278 281 288
259 263 268 268 266 266 267 269 271 270 259 254 253 252 249 252 257 258 257 256 264 270 274 271 264 258 257 270 283 288 283 277 279 282 287 288 283 289
272 271 271 273 272 269 267 267 267 268 267 261 254 251 246 246 251 255 256 258 258 261 267 270 269 274 280 287 285 286 285 284 288 286 290 294 297 297
272 273 276 276 278 278 276 273 272 269 266 263 263 258 251 245 249 252 251 253 254 258 266 275 279 274 261 260 274 286 299 306 302 300 293 283 283 284
273 273 274 275 273 274 275 271 269 271 269 265 265 266 262 257 253 251 251 249 252 261 269 277 280 269 262 265 274 283 291 300 306 308 300 297 294 290